Погода Приморско-Ахтарск

Погода Приморско-Ахтарск : погода сейчас, прогноз погоды и архив. Всё, что Вы хотите узнать о погоде Приморско-Ахтарск!

Хотите узнать прогноз погоды Приморско-Ахтарск? Тогда Вам сюда: Погода Приморско-Ахтарск

Поиск расширенной информации на нашем сайте:

Другие новости

Новости СМИ2

Главная страница сайта

Новости сайта

03.07.2017

Напоминаем, что на нашем специализированном сайте Метеоцентр.Азия вы можете получить высокодетализированные автоматические прогнозы погоды по пунктам России, СНГ и мира в авиационном формате (включающие направление и скорость ветра, видимость, явления погоды, количество и форму облачности, нижнюю и верхнюю границу облачности).

Рекомендуем: Увеличение продаж цена: как правильно применять вилку цен для увеличения продаж.

Погода Приморско-Ахтарск - сегодня

Время (UTC), дата Ветер
(°,м/с) 
Видим.   Явления Облачность Т
(°С)
Тd
(°С)
f(%) Тe
(°С)
Pmin
(гПа)
dP
(гПа)
Po
(мм)
O2
(г/м3)
Тmin Tmax R s Состояние
почвы
15 17.10.17 250 (З) 10 км    4/4 600 м 
[Sc]
+14.9 +12.6 86 +20  1020.1  0.3  765  290    +17.3       
18 17.10.17 тихо ()   4000 м  дымка  8/8 600 м 
[Sc]
+13.8 +12.3 91 +18  1021.1  765  291           
21 17.10.17 тихо ()   4000 м  дымка  8/8 600 м 
[Sc]
+13.2 +11.9 92 +17  1021.8  0.6  766  292           
00 18.10.17 030 (СВ) 4000 м  дымка  6/6 600 м 
[Sc]
+12.2 +11 92 +15  1022.3  0.5  766  294           
03 18.10.17 040 (СВ) 4000 м  дымка  10/10 600 м 
[Sc]
+12.3 +10.9 91 +16  1022.9  0.6  767  294  +11.3         
06 18.10.17 090 (В) 4000 м  дымка  10/10 600 м 
[Sc]
+13.3 +11 86 +16  1024  1.1  768  293           
09 18.10.17 250 (З) 10 км    ясно 
+18.2 +11.7 66 +23  1023.6  -0.4  767  288           
12 18.10.17 250 (З) 10 км    10/10 600 м кучево-дожд. 
[Cb calv]
+18.3 +13.1 72 +25  1022.6  -1  767  287           
15 18.10.17 тихо ()   4000 м    10/0 средняя 
[Ac As]
+14.2 +12 87 +18  1022.5  0.1  767  291    +19.5       
18 18.10.17 тихо ()   4000 м  дымка  4/0 верхняя 
[Ci fib]
+12.7 +12 96 +16  1022.5  767  293           
21 18.10.17 190 (Ю) 4000 м  дымка  ясно 
+12.5 +11.2 92 +16  1022.2  -0.3  766  293           
00 19.10.17 190 (Ю) 4000 м    ясно 
+11.8 +10.4 91 +14  1021.8  -0.4  766  294           
03 19.10.17 150 (ЮВ) 4000 м  дымка  ясно 
+9.6 +8.4 92 +11  1021.3  -0.4  766  297  +9.5        влажная 
06 19.10.17 180 (Ю) 4000 м  дымка  ясно 
+12.5 +11.5 94 +17  1021.3  0.1  766  293  +9.3         
09 19.10.17 210 (ЮЗ) 10 км    10/10 600 м 
[Sc]
+17 +12.5 75 +22  1020.9  -0.4  765  288           
12 19.10.17 240 (ЮЗ) 10 км    8/8 600 м 
[Sc]
+17.8 +12.1 69 +23  1020  -0.9  765  287           
15 19.10.17 310 (СЗ) 0500 м  туман  ?/?  
+13.7 +12.5 92 +19  1019.7  -0.3  764  291    +18.6       
18 19.10.17 тихо ()   0500 м  туман  ?/?  
+12.7 +11.8 94 +16  1019.6  -0.1  764  292           
21 19.10.17 тихо ()   0500 м  туман  ?/?  
+9.4 +8.7 95 +9  1019  -0.6  764  296           
00 20.10.17 280 (З) 0500 м  туман  ?/?  
+13.3 +12.6 96 +19  1018.9  0.1  764  291           
03 20.10.17 тихо ()   1000 м  дымка{туман}  10/10 300 м 
[Sc]
+13.3 +12.5 95 +18  1019  0.1  764  291  +9.4         
06 20.10.17 тихо ()   1000 м  дымка{туман}  10/10 600 м 
[Sc]
+13.3 +12.5 95 +18  1019.6  0.6  764  291           
09 20.10.17 200 (Ю) 4000 м  дымка  10/10 600 м 
[Sc]
+14.6 +12.9 90 +21  1019.3  -0.3  764  290           
12 20.10.17 330 (СЗ) 10 км    8/0 средняя, верхняя 
[Ac trans|Ci fib]
+15.4 +11.5 78 +19  1018.6  -0.7  764  289           
15 20.10.17 350 (С) 10 км    4/0 верхняя 
[Ci fib]
+13.4 +10.8 84 +17  1018.9  0.3  764  291    +17       
Время (UTC), дата Ветер
(°,м/с) 
Видим.   Явления Облачность Т
(°С)
Тd
(°С)
f(%) Тe
(°С)
Pmin
(гПа)
dP
(гПа)
Po
(мм)
O2
(г/м3)
Тmin Tmax R s Состояние
почвы

Для получения пояснительной информации подведите курсор к названию столбца.

ПОГОДА Приморско-Ахтарск - архив

Всё, что Вы хотите узнать о погоде Приморско-Ахтарск - удобно и подробно!

Выберите нужную дату (начиная с 1 января 2015* года) и нажмите кнопку "Найти".
Будут отображены архивные сводки погоды по пункту Приморско-Ахтарск, начиная с указанной даты.


Отображать данные в формате CSV (для использования в таблицах Excel)


Внимание! Наш архив погоды предназначен исключительно для личного некоммерческого использования в познавательных целях. Если Вам необходимы официальные справки о состоянии погоды (для производственных, юридических, коммерческих и т.п. целей), обращайтесь в органы Росгидромета.

*Примечание: данная дата относится к архиву по метеостанциям СССР (Россия, СНГ, Балтия).
Архив по метеостанциям Зарубежной Европы и Азии (кроме Китая) хранится 10 дней, по другим регионам земного шара (Китай, Африка, Америка, Австралия, Океания) - 1 день.

Приморско-Ахтарск - район местоположения метеостанции


Название, широта, долгота, высота метеостанции:
Приморско-Ахтарск 46°ш. 38.2°д. 5 м над ур. моря [Российская Федерация]

Дополнительная информация

В oтличие oт бoльшинства пoгoдных сайтoв мы публикуем пoдрoбную метеoинфoрмацию в детальнoм прoфессиoнальнoм фoрмате.

Характеристики температуры и влажнoсти вoздуха измеряются на высoте 2 м в тени вдали oт зданий и деревьев.
Скoрoсть ветра измеряется на высoте 10 м (на урoвне рoста челoвека скoрoсть ветра ниже в 1.5-2 раза). Если метеoстанция нахoдится в гoрoде или в лесу, тo скoрoсть ветра занижена на 2-4 м/с пo сравнению с oткрытым местoм. Скoрoсть ветра над акватoриями крупных рек и oзёр, а также на вершинах хoлмoв на 2-5 м/с выше, чем в oбычных услoвиях.
Атмoсфернoе давление в разных тoчках местнoсти мoжет значительнo oтличаться oт давления на метеoстанции, в зависимoсти oт услoвий рельефа (при пoдъёме на 10 м давление пoнижается примернo на 1 мм рт.ст.).